[[{"header":{"parameterUnit":"m.s-1","parameterCategory":1,"la1":30.2991,"la2":30.254,"lo1":-89.0895,"lo2":-89.0444,"dy":0.0017,"dx":0.0017,"nx":28,"ny":28,"refTime":"2024-04-11T03:00:00:Z","depth":0,"parameterNumber":2,"parameterNumberName":"U-component_of_WINDS"},"data":[0,0,0,0,0,0,0,0,0,0,0,0,0,0,0,0,0,0,0,0,0,0,0,0,0,0,0,0,0,0,0,0,0,0,0,0,0,0,0,0,0,0,0,0,0,0,0,0,0,0,0,0,0,0,0,0,0,0,3.6873,3.6874,0,3.6972,3.6974,3.6975,3.6919,3.6917,3.6914,3.6911,3.7016,3.7021,3.7026,0,0,0,0,0,0,0,0,0,0,0,0,0,3.664,3.6645,3.6873,3.6875,3.6876,3.6972,3.6974,3.6975,3.692,3.6917,3.6913,3.691,3.7014,3.702,3.7027,0,0,0,0,0,0,0,0,0,0,0,0,0,3.6741,3.6646,3.6873,3.686,3.686,3.6972,3.6974,3.6975,3.6921,3.6916,3.6912,3.6908,3.7012,3.702,3.7028,3.716,0,0,3.7052,3.7056,0,0,0,0,0,0,0,0,3.6735,3.6749,3.6861,3.6861,3.6861,3.6929,3.693,3.7037,3.6922,3.6898,3.6911,3.6906,3.6991,3.7,3.7028,3.7164,3.7169,3.7053,3.7058,3.7061,3.7063,0,0,0,0,0,0,0,3.6728,3.6745,3.6913,3.6862,3.6863,3.685,3.686,3.695,3.6966,3.6899,3.6896,3.6908,3.699,3.702,3.703,3.717,3.7053,3.706,3.7065,3.7068,3.7422,3.7427,0,0,0,0,0,0,3.6722,3.6739,3.6909,3.6916,3.6787,3.6858,3.6869,3.6912,3.6965,3.6969,3.6911,3.6905,3.7008,3.7021,3.7033,3.7192,3.7061,3.7069,3.7073,3.7418,3.7423,3.7428,0,0,0,0,0,0,3.6717,3.6737,3.6905,3.6827,3.6847,3.6866,3.6915,3.6916,3.6946,3.6974,3.6977,3.6939,3.7006,3.7022,3.7129,3.7195,3.7072,3.7079,3.7412,3.742,3.7426,3.7511,0,0,0,0,0,0,3.671,3.6736,3.6785,3.6828,3.6851,3.6998,3.6919,3.6921,3.6959,3.6952,3.7001,3.7005,3.7004,3.7117,3.7137,3.7204,3.7086,3.7407,3.7416,3.7424,3.7502,3.752,3.7535,0,0,0,0,0,3.6702,3.6805,3.6788,3.6809,3.6913,3.7002,3.7016,3.7011,3.6965,3.7016,3.7034,3.7003,3.7185,3.7129,3.715,3.7221,3.7402,3.7413,3.7423,3.7495,3.7516,3.7534,0,0,0,0,0,0,3.677,3.6811,3.6792,3.6911,3.6954,3.6993,3.7056,3.7034,3.7091,3.7082,3.7075,3.7087,3.7198,3.722,3.7157,3.7352,3.7287,3.7302,3.7334,3.7354,3.737,3.7363,3.7092,0,0,0,0,0,3.6799,3.6867,3.6899,3.7002,3.7024,3.7037,3.7075,3.7068,3.7112,3.713,3.7156,3.7201,3.7268,3.7312,3.7376,3.7505,3.7516,3.7565,3.7581,3.7594,3.7608,3.7679,3.7702,3.7463,3.7463,3.7462,0,0,3.686,3.689,3.6933,3.7016,3.7048,3.712,3.7052,3.713,3.7184,3.7142,3.7244,3.7266,3.7315,3.7435,3.7488,3.7456,3.7676,3.7608,3.7618,3.7624,3.7692,3.7715,3.7735,3.747,3.7468,3.7467,0,0,3.7007,3.7036,3.7125,3.7159,3.7208,3.7216,3.7238,3.728,3.7293,3.7395,3.7366,3.743,3.7546,3.7583,3.7617,3.778,3.7754,3.7801,3.7886,3.7956,3.7975,3.7992,3.8051,3.8072,3.7814,3.7814,3.7814,0,3.7076,3.7181,3.7174,3.7255,3.7293,3.7259,3.735,3.7383,3.7451,3.7479,3.7442,3.7587,3.7618,3.7746,3.7786,3.7815,3.784,3.7795,3.7973,3.7989,3.8005,3.8061,3.8083,3.782,3.7819,3.7818,3.7818,0,3.7264,3.7339,3.7405,3.7471,3.7516,3.7602,3.761,3.7657,3.7647,3.766,3.7766,3.7802,3.7872,3.7902,3.7893,3.803,3.8009,3.7973,3.7906,3.8033,3.8086,3.8108,3.7827,3.7825,3.7824,3.7822,0,0,3.7456,3.7517,3.7542,3.7572,3.7625,3.7683,3.7768,3.7836,3.7878,3.7926,3.7999,3.8098,3.8065,3.8104,3.8099,3.8161,3.8289,3.8117,3.8118,3.8148,3.8444,3.8471,3.8496,3.8273,3.8277,3.828,3.844,0,3.7606,3.7754,3.7751,3.7889,3.7958,3.7927,3.8002,3.8043,3.8058,3.812,3.8136,3.8207,3.8158,3.8181,3.8241,3.8261,3.8348,3.8249,3.8341,3.8345,3.833,3.8523,3.8552,3.87,3.846,3.8464,3.8466,0,3.7801,3.7856,3.8001,3.8044,3.8073,3.814,3.8204,3.8263,3.831,3.8316,3.8361,3.8347,3.8435,3.8367,3.849,3.8422,3.846,3.8476,3.8482,3.849,3.8413,3.8537,3.8747,3.877,3.8499,3.8496,3.8494,0,3.7927,3.8037,3.8138,3.8165,3.8218,3.8266,3.8291,3.8334,3.8376,3.8432,3.846,3.8526,3.8562,3.8614,3.8619,3.8569,3.8743,3.8675,3.8752,3.8752,3.879,3.8787,3.9009,3.8814,3.8814,3.8814,3.8813,0,3.8095,3.8185,3.8195,3.8258,3.8358,3.8355,3.8455,3.8476,3.8514,3.8581,3.8559,3.8623,3.8625,3.8691,3.8696,3.8797,3.8814,3.8822,3.8823,3.8824,3.8823,3.8849,3.8839,3.8819,3.8818,3.8817,3.8816,0,3.8253,3.8263,3.8371,3.8413,3.8426,3.8498,3.8535,3.8595,3.8608,3.8693,3.8713,3.8734,3.881,3.8821,3.891,3.8913,3.9036,3.9025,3.9019,3.9018,3.9095,3.9087,3.9341,3.9374,3.9157,3.9159,3.9161,0,3.8359,3.8428,3.8477,3.852,3.8547,3.8617,3.8659,3.866,3.8706,3.8766,3.8819,3.8893,3.8952,3.9076,3.91,3.9168,3.9159,3.9244,3.917,3.917,3.9161,3.9157,3.9165,3.9258,3.926,3.9262,3.9264,0,3.8548,3.855,3.8612,3.8677,3.8728,3.8779,3.8827,3.8864,3.8871,3.8924,3.9001,3.9047,3.9138,3.9213,3.9281,3.9308,3.9288,3.9287,3.9308,3.9311,3.9305,3.931,3.9059,3.9281,3.9279,3.9278,3.9277,3.9276,3.8683,3.8743,3.8788,3.8858,3.8894,3.894,3.8999,3.902,3.9084,3.9158,3.9155,3.924,3.9288,3.9377,3.9409,3.9477,3.945,3.9481,3.9489,3.9497,3.9505,3.9295,3.949,3.9489,3.9489,3.9489,3.9488,0,3.8871,3.8899,3.8963,3.9031,3.9087,3.9063,3.9115,3.9164,3.9239,3.9285,3.9344,3.9434,3.9506,3.9536,3.9608,3.9657,3.9649,3.9676,3.9672,3.9679,3.9525,3.9499,3.968,3.968,3.968,3.968,3.968,3.968,3.8975,3.9076,3.9084,3.9203,3.923,3.9313,3.9345,3.9388,3.9424,3.9525,3.9585,3.9604,3.9644,3.9719,3.9785,3.9792,3.982,3.985,3.9853,3.9709,3.9689,3.9671,3.9647,3.9856,3.9856,4.0002,4.0003,4.0004]},{"header":{"parameterUnit":"m.s-1","parameterCategory":1,"la1":30.2991,"la2":30.254,"lo1":-89.0895,"lo2":-89.0444,"dy":0.0017,"dx":0.0017,"nx":28,"ny":28,"refTime":"2024-04-11T03:00:00:Z","depth":0,"parameterNumber":3,"parameterNumberName":"V-component_of_WINDS"},"data":[0,0,0,0,0,0,0,0,0,0,0,0,0,0,0,0,0,0,0,0,0,0,0,0,0,0,0,0,0,0,0,0,0,0,0,0,0,0,0,0,0,0,0,0,0,0,0,0,0,0,0,0,0,0,0,0,0,0,-4.0059,-4.0061,0,-4.0198,-4.0199,-4.0201,-4.0158,-4.0155,-4.0152,-4.0149,-4.0294,-4.0301,-4.0307,0,0,0,0,0,0,0,0,0,0,0,0,0,-3.9762,-3.9767,-4.0059,-4.0061,-4.0063,-4.0197,-4.0199,-4.0201,-4.0159,-4.0155,-4.0151,-4.0148,-4.0292,-4.03,-4.0308,0,0,0,0,0,0,0,0,0,0,0,0,0,-3.9895,-3.9769,-4.0059,-4.0058,-4.0059,-4.0197,-4.0199,-4.0202,-4.0159,-4.0155,-4.0151,-4.0146,-4.029,-4.0299,-4.0309,-4.0458,0,0,-4.0339,-4.0343,0,0,0,0,0,0,0,0,-3.9887,-3.9906,-4.0056,-4.0058,-4.006,-4.0156,-4.0147,-4.0288,-4.016,-4.0121,-4.0149,-4.0144,-4.0252,-4.0265,-4.03,-4.0465,-4.0471,-4.034,-4.0346,-4.035,-4.0353,0,0,0,0,0,0,0,-3.9878,-3.99,-4.0114,-4.0058,-4.0061,-4.0051,-4.0065,-4.0174,-4.021,-4.0124,-4.0122,-4.0138,-4.0252,-4.0291,-4.0304,-4.0473,-4.034,-4.0348,-4.0355,-4.0358,-4.0767,-4.0772,0,0,0,0,0,0,-3.9867,-3.9892,-4.011,-4.0118,-3.9961,-4.006,-4.0076,-4.013,-4.0208,-4.0216,-4.0142,-4.0136,-4.0276,-4.0292,-4.0308,-4.0489,-4.035,-4.0359,-4.0365,-4.0763,-4.0769,-4.0774,0,0,0,0,0,0,-3.9861,-3.9887,-4.0104,-4.0005,-4.0031,-4.007,-4.0131,-4.0135,-4.0173,-4.0222,-4.0228,-4.0175,-4.0273,-4.0295,-4.0421,-4.0493,-4.0364,-4.0373,-4.0757,-4.0764,-4.0771,-4.0851,0,0,0,0,0,0,-3.9853,-3.9885,-3.9941,-4.0006,-4.0037,-4.0214,-4.0135,-4.014,-4.019,-4.0183,-4.0254,-4.0262,-4.0272,-4.0407,-4.0431,-4.0505,-4.038,-4.075,-4.076,-4.0769,-4.0842,-4.086,-4.0875,0,0,0,0,0,-3.9842,-3.9958,-3.9944,-3.9971,-4.0108,-4.0218,-4.0236,-4.0244,-4.0196,-4.0254,-4.0285,-4.026,-4.0481,-4.042,-4.0447,-4.0525,-4.0746,-4.0757,-4.0768,-4.0834,-4.0856,-4.0875,0,0,0,0,0,0,-3.9902,-3.9967,-3.9952,-4.0092,-4.015,-4.021,-4.0283,-4.0267,-4.034,-4.033,-4.0338,-4.0355,-4.0485,-4.0517,-4.0448,-4.0674,-4.0607,-4.0624,-4.0648,-4.0669,-4.0685,-4.0675,-4.0389,0,0,0,0,0,-3.9931,-4.0014,-4.0067,-4.0186,-4.0215,-4.0244,-4.0293,-4.0294,-4.0354,-4.0378,-4.0419,-4.0479,-4.0563,-4.0617,-4.0697,-4.0846,-4.0861,-4.0913,-4.0929,-4.0943,-4.0958,-4.1041,-4.1065,-4.081,-4.081,-4.081,0,0,-3.9993,-4.0039,-4.0091,-4.0199,-4.0244,-4.0331,-4.0265,-4.036,-4.0425,-4.0393,-4.0515,-4.0547,-4.0615,-4.0754,-4.0817,-4.0785,-4.1032,-4.0957,-4.0968,-4.0976,-4.1055,-4.1079,-4.11,-4.0818,-4.0817,-4.0815,0,0,-4.0151,-4.0193,-4.0297,-4.0343,-4.0411,-4.043,-4.0455,-4.0518,-4.0538,-4.066,-4.0639,-4.0717,-4.086,-4.0909,-4.0954,-4.113,-4.1111,-4.1156,-4.1244,-4.1325,-4.1345,-4.1363,-4.1427,-4.145,-4.1171,-4.1171,-4.1171,0,-4.0219,-4.0348,-4.0353,-4.045,-4.0499,-4.0473,-4.0579,-4.0624,-4.0715,-4.075,-4.0713,-4.0892,-4.0936,-4.1087,-4.113,-4.1166,-4.1196,-4.1148,-4.1341,-4.1359,-4.1376,-4.1438,-4.1462,-4.1176,-4.1175,-4.1175,-4.1174,0,-4.043,-4.052,-4.0596,-4.0684,-4.0741,-4.0842,-4.0864,-4.0921,-4.0918,-4.0941,-4.1066,-4.1118,-4.1208,-4.1244,-4.1241,-4.1395,-4.1373,-4.1338,-4.1272,-4.1405,-4.1463,-4.1487,-4.1183,-4.1182,-4.118,-4.1179,0,0,-4.063,-4.0718,-4.0747,-4.0787,-4.086,-4.093,-4.1031,-4.1118,-4.1168,-4.1232,-4.1317,-4.1439,-4.1408,-4.1458,-4.1461,-4.1531,-4.167,-4.1488,-4.149,-4.1521,-4.1844,-4.187,-4.1897,-4.1657,-4.1661,-4.1665,-4.1839,0,-4.0794,-4.097,-4.0977,-4.1138,-4.1222,-4.1199,-4.1287,-4.1342,-4.1366,-4.1442,-4.1469,-4.1556,-4.1507,-4.1538,-4.1606,-4.1638,-4.1735,-4.1626,-4.1738,-4.1742,-4.1723,-4.1928,-4.1956,-4.2117,-4.1861,-4.1865,-4.1868,0,-4.1009,-4.1079,-4.1248,-4.131,-4.1346,-4.1424,-4.1505,-4.1577,-4.164,-4.1653,-4.1709,-4.1702,-4.1807,-4.1736,-4.1881,-4.1806,-4.1853,-4.1875,-4.1882,-4.1894,-4.1814,-4.1946,-4.2169,-4.2194,-4.1903,-4.1901,-4.1898,0,-4.114,-4.1276,-4.1395,-4.1429,-4.1505,-4.1561,-4.1595,-4.1653,-4.1705,-4.1776,-4.1811,-4.1893,-4.1939,-4.2004,-4.202,-4.1966,-4.2165,-4.2095,-4.218,-4.218,-4.2224,-4.2221,-4.2458,-4.2252,-4.2251,-4.2251,-4.225,0,-4.1323,-4.1428,-4.1454,-4.1528,-4.1644,-4.1652,-4.1768,-4.1799,-4.1851,-4.1931,-4.1916,-4.1992,-4.2008,-4.2087,-4.21,-4.2219,-4.224,-4.2254,-4.2257,-4.2256,-4.2255,-4.2288,-4.2277,-4.2257,-4.2256,-4.2255,-4.2254,0,-4.1489,-4.1511,-4.1639,-4.1699,-4.1717,-4.1801,-4.1853,-4.1924,-4.1946,-4.2048,-4.2072,-4.2108,-4.2201,-4.2223,-4.2333,-4.2342,-4.2483,-4.2474,-4.2462,-4.2462,-4.2546,-4.2539,-4.2814,-4.2852,-4.2619,-4.2621,-4.2623,0,-4.1605,-4.1685,-4.1754,-4.1806,-4.1842,-4.1926,-4.1979,-4.199,-4.2047,-4.2125,-4.2187,-4.2277,-4.2351,-4.25,-4.2537,-4.2621,-4.2615,-4.2706,-4.2628,-4.2626,-4.2619,-4.2614,-4.2623,-4.2721,-4.2724,-4.2726,-4.2727,0,-4.181,-4.1817,-4.1893,-4.1974,-4.2037,-4.2101,-4.2163,-4.2207,-4.2226,-4.229,-4.2384,-4.2441,-4.2554,-4.2645,-4.273,-4.2766,-4.2752,-4.2751,-4.2776,-4.2777,-4.2767,-4.2775,-4.2504,-4.2745,-4.2744,-4.2742,-4.2741,-4.2741,-4.1956,-4.2026,-4.2086,-4.2172,-4.2219,-4.2276,-4.2346,-4.2377,-4.2455,-4.2547,-4.2549,-4.2652,-4.2714,-4.2827,-4.2869,-4.295,-4.2923,-4.2958,-4.2967,-4.2976,-4.2984,-4.2753,-4.2966,-4.2965,-4.2965,-4.2965,-4.2964,0,-4.2161,-4.2198,-4.2277,-4.2363,-4.2431,-4.2409,-4.2476,-4.2535,-4.2625,-4.2683,-4.2756,-4.2865,-4.2953,-4.2996,-4.3084,-4.3141,-4.3137,-4.3164,-4.3161,-4.317,-4.3003,-4.2974,-4.3166,-4.3166,-4.3166,-4.3166,-4.3166,-4.3166,-4.2276,-4.2394,-4.2408,-4.255,-4.2586,-4.2686,-4.2727,-4.2781,-4.2827,-4.2949,-4.3022,-4.3049,-4.3103,-4.3194,-4.3275,-4.3285,-4.3319,-4.335,-4.3358,-4.3202,-4.3181,-4.3162,-4.3134,-4.3357,-4.3358,-4.3518,-4.3519,-4.352]}]]